map of LMO home
LMO - Airport
Location
City:  Lossiemouth, Morayshire, Scotland, United Kingdom
Name:RAF
ICAO:EGQS
IATA:LMO

Details
Type:Airport (Aerodrome, Airfield)
Use:Military, International (customs port of entry)
Latitude:5742'19"N (57.705214)
Longitude:320'21"W (-3.339168)
Datum:WGS 1984
Elevation:42 ft (13 m)
Variation:2.73W (WMM2015 magnetic declination)
0.18 annual change
Runways:2
Longest:9091 × 150 ft (2771 × 45.5 m), paved

Time
Time Zone:UTC+0 (DST+1)
Local Time:

Weather
METAR:EGQS 251050Z 25015KT CAVOK 14/M03 Q1031 BLU NOSIG
TAF:EGQS 250726Z 2509/2603 23007KT 9999 SCT030= TAF EGVN 250734Z 2509/2609 05012KT CAVOK
TEMPO 2509/2518 06015G25KT
BECMG 2607/2609 06015G25KT PROB30
TEMPO 2607/2609 SCT008

Related Locations
Nearby:
Farthest:SZS: 11602 mi / 18672 km
Ryan's Creek, Stewart Island, STL, NZ

Find:

   beyond  
but within

Other Information
Maps:
NOTAMs:
Links:
Sources:

  
flag of United Kingdom
flag of Scotland
flag of Royal Air Force
  

Airport Diagram

Airport diagram for LMO

Larger airport diagram (OBSOLETE) from NGA

Sectional Chart

Flight Planning
at skyvector.com

Satellite Image

Google Maps Satellite view

 

Copyright © 2004-2017 Karl L. Swartz. All rights reserved.
The Great Circle Mapper name and logo are trademarks of the Great Circle Mapper.
All other trademarks mentioned herein belong to their respective owners.
Please see credits for attibutions and further copyright information.

  Follow gcmap on Facebook Follow gcmap on Twitter Follow gcmap on Google+ GCmap on LinkedIn

hCard Microformat

Geo Microformat